Showing default

OPS 2366 (TRANSIT 14), 2401

Orbit data source: Space-Track

OPS 2366 (TRANSIT 14), 2401 is a payload satellite owned by USN NAVAIR (US) in LEO that was launched on Thu, 18 Aug 1966 UTC via an SCOUT A launch vehicle from the Air Force Western Test Range (AFWTR). Payload-class satellites include a variety of spacecraft equipped with specific instruments for various scientific and technological missions. These include communications satellites like Starlink; space stations such as the ISS; scientific satellites like the Hubble; Earth observation satellites from companies like Planet Labs, Umbra, and HawkEye 360; GPS; miniature CubeSats for education and research; and military/defense satellites.

Loading next visibility...
Identifier
2401, 1966-076A
Orbit
LEO
Country
Flag of USUS
Related business
Manufacturer
APL
Mission
Spacecraft
Bus & Motor
TRANSIT 5, Unknown motor
Mass
~49 kg wet, ~49 kg dry
Launch date (UTC)
1966-08-18 (60 years ago)
Launch vehicle
SCOUT A
Launch site
Air Force Western Test Range (AFWTR)
Object type
Payload
Rocket body
Debris
Shape & HBR
OCT CYL + 4 PAN + ANT, 1.1 m
Radar Cross Section
Medium (>0.1 m² and <1 m²)

Expand to show TLE details & history
Last TLE update: 7 hours ago

TLE from 7 hours ago
0 OPS 2366 (TRANSIT 14)
1 02401U 66076A   26254.21252692  .00000069  00000-0  82581-4 0  9993
2 02401  88.8448  55.7104 0034126  57.2330 116.5299 13.53969716962737
Epoch: 2026-09-11T05:06Z
TLE epoch observation values (Epoch: 2026-09-11T05:06:02.325Z)
Latitude
5.80636°
Longitude
168.84471°
Altitude
1,071.486 km
Speed
7.311 km/s
True Right ascension
15h 42m 22s
True Declination
5° 46' 24"
Sunlit
Object was in daylight at epoch
Visualization orbit readout
Latitude
Unknown
Longitude
Unknown
Altitude
Unknown
Speed
Unknown
Apparent Right ascension
Unknown
Apparent Declination
Unknown
Sunlit
N/A
Visualization observer readout
Local Sidereal Time
04:28:15
Azimuth
Unknown
Elevation
Unknown
Doppler factor
Unknown
Orbital elements
Apogee altitude
1,080.102 km
Perigee altitude
1,029.371 km
Semi-major axis
7,432.873 km
Eccentricity
0.00341
Inclination
88.8448°
RAAN
55.7104°
Arg. of periapsis
57.233°
True anomaly
116.87911°
Mean anomaly
116.5299°
Eccentric anomaly
116.70457°
Mean motion
3.38694 °/min
Orbital period
106.29 mins
BSTAR
0.000082581
Loading maneuver chart data...
Computing Atmospheric mass density...
Loading historical data...
Loading historical data...
Loading historical data...
Loading historical data...
Loading historical data...
Loading historical data...
Loading historical data...

Documentation

Showing up to 5 results
|